Weather in Tsagan Aman

Russia / Republic of Kalmykia     47°33′51″N   46°43′25″E
temp.,
°C
wind,
m/s
gust,
m/s
humid.,
%
clouds,
%
prec.,
mm/h
press.,
hPa
HPBL,
m
1 december, wed
wed100:00+7se51097100 0.0 996175
03:00+8ssw3794100 0.5 995165
06:00+9ssw51495100 1.9 995504
09:00+10sw81473100 1.9 995887
12:00+9wsw111471100 0.0 9951080
15:00+4wnw121694100 0.1 1000887
18:00+4wnw9147486 0.0 10041027
21:00+3w49825 0.0 1006403
2 december, thu
thu200:00+1sw367838 0.0 1008129
03:00+2ssw61173100 0.0 1008381
06:00+4wsw8137662 0.5 1009797
09:00+3w81177100 0.5 10131168
12:00+4w7106199 0.0 10151346
15:00+5w7955100 0.0 10171198
18:00+2w36685 0.0 1019121
21:00+2wsw48715 0.0 1020149
3 december, fri
fri300:00+1sw467519 0.0 1021108
03:00+1sw48835 0.0 1021139
06:00+1ssw498335 0.0 1021153
09:00+3ssw5107539 0.0 1023271
12:00+7ssw695950 0.0 1022441
15:00+7s4858100 0.0 1022281
18:00+5sse4862100 0.0 1023150
21:00+5sse51390100 0.0 1022297
4 december, sat
sat400:00+5sse6149396 0.0 1022363
03:00+4sse614945 0.0 1022372
06:00+4sse614935 0.0 1021334
09:00+5sse6138975 0.0 1021396
12:00+9s71174100 0.0 1019612
15:00+9sse7117798 0.0 1018513
18:00+7s6138562 0.0 1018387
21:00+5sse5119165 0.0 1017261
5 december, sun
sun500:00+4se4109342 0.0 1016202
03:00+4se469473 0.0 1015124
06:00+3e1193100 0.0 101610
09:00+5ese2387100 0.0 1017109
12:00+7se3376100 0.0 1017208
15:00+7sse2288100 0.0 1017134
18:00+6e3497100 0.0 101881
21:00+6ese3393100 0.0 101942